Time,TemperatureF,DewpointF,PressureIn,WindDirection,WindDirectionDegrees,WindSpeedMPH,WindSpeedGustMPH,Humidity,HourlyPrecipIn,Conditions,Clouds,dailyrainin,SoftwareType,DateUTC
2013-01-09 00:00:00,67.8,66.6,30.21,East,88,1.0,2.0,96,0.00,,---,0.00,VWS V14.01,2013-01-09 05:00:00,
2013-01-09 00:03:00,67.9,66.7,30.21,East,79,4.0,4.0,96,0.00,,---,0.00,VWS V14.01,2013-01-09 05:03:00,
2013-01-09 00:08:00,67.9,66.7,30.21,East,86,3.0,4.0,96,0.00,,---,0.00,VWS V14.01,2013-01-09 05:08:00,
2013-01-09 00:10:00,67.9,67.0,30.21,East,79,1.0,4.0,97,0.00,,---,0.00,VWS V14.01,2013-01-09 05:10:00,
2013-01-09 00:13:00,67.9,67.0,30.21,ENE,75,1.0,4.0,97,0.00,,---,0.00,VWS V14.01,2013-01-09 05:13:00,
2013-01-09 00:18:00,67.9,67.0,30.21,ENE,76,0.0,4.0,97,0.00,,---,0.00,VWS V14.01,2013-01-09 05:18:00,
2013-01-09 00:20:00,67.9,67.0,30.21,ENE,71,1.0,4.0,97,0.00,,---,0.00,VWS V14.01,2013-01-09 05:20:00,
2013-01-09 00:23:00,68.0,67.1,30.21,ENE,77,2.0,3.0,97,0.00,,---,0.00,VWS V14.01,2013-01-09 05:23:00,
2013-01-09 00:28:00,68.0,67.1,30.21,ENE,76,1.0,3.0,97,0.00,,---,0.00,VWS V14.01,2013-01-09 05:28:00,
2013-01-09 00:30:00,68.0,67.1,30.21,ENE,65,2.0,3.0,97,0.00,,---,0.00,VWS V14.01,2013-01-09 05:30:00,
2013-01-09 00:33:00,68.0,67.1,30.21,ENE,78,1.0,2.0,97,0.00,,---,0.00,VWS V14.01,2013-01-09 05:33:00,
2013-01-09 00:38:00,68.0,67.1,30.21,ESE,110,2.0,4.0,97,0.00,,---,0.00,VWS V14.01,2013-01-09 05:38:00,
2013-01-09 00:40:00,68.0,67.1,30.21,ENE,77,3.0,4.0,97,0.00,,---,0.00,VWS V14.01,2013-01-09 05:40:00,
2013-01-09 00:43:00,68.0,67.1,30.21,ESE,102,2.0,5.0,97,0.00,,---,0.00,VWS V14.01,2013-01-09 05:43:00,
2013-01-09 00:48:00,67.9,67.0,30.21,ENE,78,1.0,5.0,97,0.00,,---,0.00,VWS V14.01,2013-01-09 05:48:00,
2013-01-09 00:50:00,67.9,67.0,30.21,East,83,2.0,5.0,97,0.00,,---,0.00,VWS V14.01,2013-01-09 05:50:00,
2013-01-09 00:53:00,67.9,67.0,30.21,East,79,1.0,5.0,97,0.00,,---,0.00,VWS V14.01,2013-01-09 05:53:00,
2013-01-09 00:58:00,67.9,67.0,30.21,ENE,77,1.0,5.0,97,0.00,,---,0.00,VWS V14.01,2013-01-09 05:58:00,
2013-01-09 01:00:00,67.9,67.0,30.21,ENE,65,3.0,5.0,97,0.00,,---,0.00,VWS V14.01,2013-01-09 06:00:00,
2013-01-09 01:03:00,67.9,67.0,30.21,ENE,68,3.0,5.0,97,0.00,,---,0.00,VWS V14.01,2013-01-09 06:03:00,
2013-01-09 01:08:00,67.9,67.0,30.21,ENE,67,2.0,5.0,97,0.00,,---,0.00,VWS V14.01,2013-01-09 06:08:00,
2013-01-09 01:10:00,67.9,67.0,30.21,East,90,0.0,5.0,97,0.00,,---,0.00,VWS V14.01,2013-01-09 06:10:00,
2013-01-09 01:13:00,67.9,67.0,30.21,East,82,0.0,4.0,97,0.00,,---,0.00,VWS V14.01,2013-01-09 06:13:00,
2013-01-09 01:18:00,67.9,67.0,30.21,ENE,69,2.0,4.0,97,0.00,,---,0.00,VWS V14.01,2013-01-09 06:18:00,
2013-01-09 01:20:00,67.9,67.0,30.21,ENE,71,2.0,4.0,97,0.00,,---,0.00,VWS V14.01,2013-01-09 06:20:00,
2013-01-09 01:23:00,67.9,67.0,30.21,East,80,2.0,3.0,97,0.00,,---,0.00,VWS V14.01,2013-01-09 06:23:00,
2013-01-09 01:28:00,67.9,67.0,30.21,East,80,1.0,4.0,97,0.00,,---,0.00,VWS V14.01,2013-01-09 06:28:00,
2013-01-09 01:30:00,67.9,67.0,30.21,East,80,1.0,4.0,97,0.00,,---,0.00,VWS V14.01,2013-01-09 06:30:00,
2013-01-09 01:33:00,67.9,67.0,30.21,ENE,72,1.0,4.0,97,0.00,,---,0.00,VWS V14.01,2013-01-09 06:33:00,
2013-01-09 01:38:00,67.9,67.0,30.21,East,89,0.0,4.0,97,0.00,,---,0.00,VWS V14.01,2013-01-09 06:38:00,
2013-01-09 01:40:00,67.9,67.0,30.21,ENE,77,2.0,4.0,97,0.00,,---,0.00,VWS V14.01,2013-01-09 06:40:00,
2013-01-09 01:43:00,67.9,67.0,30.21,East,80,1.0,2.0,97,0.00,,---,0.00,VWS V14.01,2013-01-09 06:43:00,
2013-01-09 01:48:00,67.9,67.0,30.21,East,79,3.0,3.0,97,0.00,,---,0.00,VWS V14.01,2013-01-09 06:48:00,
2013-01-09 01:50:00,67.9,67.0,30.21,East,84,1.0,3.0,97,0.00,,---,0.00,VWS V14.01,2013-01-09 06:50:00,
2013-01-09 01:53:00,67.9,67.0,30.21,ENE,75,1.0,4.0,97,0.00,,---,0.00,VWS V14.01,2013-01-09 06:53:00,
2013-01-09 01:58:00,67.9,67.0,30.20,East,91,1.0,4.0,97,0.00,,---,0.00,VWS V14.01,2013-01-09 06:58:00,
2013-01-09 02:00:00,67.9,67.0,30.20,East,79,1.0,4.0,97,0.00,,---,0.00,VWS V14.01,2013-01-09 07:00:00,
2013-01-09 02:03:00,67.9,67.0,30.20,ENE,78,1.0,4.0,97,0.00,,---,0.00,VWS V14.01,2013-01-09 07:03:00,
2013-01-09 02:08:00,67.9,67.0,30.20,East,83,0.0,4.0,97,0.00,,---,0.00,VWS V14.01,2013-01-09 07:08:00,
2013-01-09 02:10:00,67.9,67.0,30.20,East,80,1.0,4.0,97,0.00,,---,0.00,VWS V14.01,2013-01-09 07:10:00,
2013-01-09 02:13:00,67.9,67.0,30.20,East,81,1.0,4.0,97,0.00,,---,0.00,VWS V14.01,2013-01-09 07:13:00,
2013-01-09 02:18:00,67.9,67.0,30.20,ENE,68,2.0,4.0,97,0.00,,---,0.00,VWS V14.01,2013-01-09 07:18:00,
2013-01-09 02:20:00,67.9,67.0,30.20,East,84,0.0,4.0,97,0.00,,---,0.00,VWS V14.01,2013-01-09 07:20:00,
2013-01-09 02:23:00,67.9,67.0,30.20,ENE,76,1.0,2.0,97,0.00,,---,0.00,VWS V14.01,2013-01-09 07:23:00,
2013-01-09 02:28:00,67.9,67.0,30.20,ENE,68,2.0,2.0,97,0.00,,---,0.00,VWS V14.01,2013-01-09 07:28:00,
2013-01-09 02:30:00,67.9,67.0,30.20,East,80,2.0,2.0,97,0.00,,---,0.00,VWS V14.01,2013-01-09 07:30:00,
2013-01-09 02:33:00,67.9,67.0,30.20,East,83,0.0,2.0,97,0.00,,---,0.00,VWS V14.01,2013-01-09 07:33:00,
2013-01-09 02:38:00,67.9,67.0,30.20,East,91,0.0,2.0,97,0.00,,---,0.00,VWS V14.01,2013-01-09 07:38:00,
2013-01-09 02:40:00,67.9,67.0,30.20,East,92,0.0,2.0,97,0.00,,---,0.00,VWS V14.01,2013-01-09 07:40:00,
2013-01-09 02:43:00,67.9,67.0,30.20,ENE,68,2.0,2.0,97,0.00,,---,0.00,VWS V14.01,2013-01-09 07:43:00,
2013-01-09 02:48:00,67.9,67.0,30.20,ENE,78,0.0,2.0,97,0.00,,---,0.00,VWS V14.01,2013-01-09 07:48:00,
2013-01-09 02:50:00,67.9,67.0,30.20,ENE,77,0.0,2.0,97,0.00,,---,0.00,VWS V14.01,2013-01-09 07:50:00,
2013-01-09 02:53:00,67.9,67.0,30.20,ENE,60,0.0,1.0,97,0.00,,---,0.00,VWS V14.01,2013-01-09 07:53:00,
2013-01-09 02:58:00,67.8,66.9,30.20,East,88,0.0,1.0,97,0.00,,---,0.00,VWS V14.01,2013-01-09 07:58:00,
2013-01-09 03:00:00,67.8,66.9,30.20,East,87,0.0,1.0,97,0.00,,---,0.00,VWS V14.01,2013-01-09 08:00:00,
2013-01-09 03:03:00,67.8,66.9,30.20,East,88,0.0,0.0,97,0.00,,---,0.00,VWS V14.01,2013-01-09 08:03:00,
2013-01-09 03:08:00,67.7,66.8,30.20,ESE,105,1.0,1.0,97,0.00,,---,0.00,VWS V14.01,2013-01-09 08:08:00,
2013-01-09 03:10:00,67.7,66.8,30.20,East,85,1.0,1.0,97,0.00,,---,0.00,VWS V14.01,2013-01-09 08:10:00,
2013-01-09 03:13:00,67.7,66.8,30.20,ENE,72,1.0,2.0,97,0.00,,---,0.00,VWS V14.01,2013-01-09 08:13:00,
2013-01-09 03:18:00,67.6,66.7,30.21,East,80,0.0,2.0,97,0.00,,---,0.00,VWS V14.01,2013-01-09 08:18:00,
2013-01-09 03:20:00,67.6,66.7,30.21,East,80,0.0,2.0,97,0.00,,---,0.00,VWS V14.01,2013-01-09 08:20:00,
2013-01-09 03:23:00,67.6,66.7,30.20,East,83,1.0,1.0,97,0.00,,---,0.00,VWS V14.01,2013-01-09 08:23:00,
2013-01-09 03:29:00,67.6,66.7,30.21,East,79,1.0,2.0,97,0.00,,---,0.00,VWS V14.01,2013-01-09 08:29:00,
2013-01-09 03:30:00,67.6,66.7,30.21,East,79,0.0,2.0,97,0.00,,---,0.00,VWS V14.01,2013-01-09 08:30:00,
2013-01-09 03:33:00,67.5,66.6,30.21,ENE,68,1.0,1.0,97,0.00,,---,0.00,VWS V14.01,2013-01-09 08:33:00,
2013-01-09 03:38:00,67.4,66.5,30.20,ENE,68,0.0,2.0,97,0.00,,---,0.00,VWS V14.01,2013-01-09 08:38:00,
2013-01-09 03:40:00,67.4,66.5,30.20,ENE,71,0.0,2.0,97,0.00,,---,0.00,VWS V14.01,2013-01-09 08:40:00,
2013-01-09 03:43:00,67.3,66.4,30.20,ENE,64,2.0,2.0,97,0.00,,---,0.00,VWS V14.01,2013-01-09 08:43:00,
2013-01-09 03:48:00,67.3,66.4,30.20,East,79,0.0,3.0,97,0.00,,---,0.00,VWS V14.01,2013-01-09 08:48:00,
2013-01-09 03:50:00,67.3,66.4,30.20,East,79,0.0,3.0,97,0.00,,---,0.00,VWS V14.01,2013-01-09 08:50:00,
2013-01-09 03:53:00,67.3,66.4,30.20,East,84,3.0,3.0,97,0.00,,---,0.00,VWS V14.01,2013-01-09 08:53:00,
2013-01-09 03:59:00,67.3,66.4,30.20,ENE,76,1.0,4.0,97,0.00,,---,0.00,VWS V14.01,2013-01-09 08:59:00,
2013-01-09 04:00:00,67.3,66.4,30.20,East,84,0.0,4.0,97,0.00,,---,0.00,VWS V14.01,2013-01-09 09:00:00,
2013-01-09 04:04:00,67.2,66.3,30.20,East,82,0.0,1.0,97,0.00,,---,0.00,VWS V14.01,2013-01-09 09:04:00,
2013-01-09 04:09:00,67.2,66.3,30.20,East,88,0.0,2.0,97,0.00,,---,0.00,VWS V14.01,2013-01-09 09:09:00,
2013-01-09 04:10:00,67.2,66.3,30.20,East,88,0.0,2.0,97,0.00,,---,0.00,VWS V14.01,2013-01-09 09:10:00,
2013-01-09 04:14:00,67.2,66.3,30.20,ENE,78,1.0,1.0,97,0.00,,---,0.00,VWS V14.01,2013-01-09 09:14:00,
2013-01-09 04:19:00,67.2,66.3,30.20,ENE,71,1.0,2.0,97,0.00,,---,0.00,VWS V14.01,2013-01-09 09:19:00,
2013-01-09 04:20:00,67.2,66.3,30.20,ENE,70,1.0,2.0,97,0.00,,---,0.00,VWS V14.01,2013-01-09 09:20:00,
2013-01-09 04:24:00,67.2,66.3,30.20,ENE,74,1.0,2.0,97,0.00,,---,0.00,VWS V14.01,2013-01-09 09:24:00,
2013-01-09 04:29:00,67.2,66.6,30.20,ENE,74,0.0,2.0,98,0.00,,---,0.00,VWS V14.01,2013-01-09 09:29:00,
2013-01-09 04:30:00,67.2,66.6,30.20,ENE,78,1.0,2.0,98,0.00,,---,0.00,VWS V14.01,2013-01-09 09:30:00,
2013-01-09 04:34:00,67.3,66.7,30.20,East,79,1.0,1.0,98,0.00,,---,0.00,VWS V14.01,2013-01-09 09:34:00,
2013-01-09 04:39:00,67.3,66.7,30.20,ENE,74,0.0,2.0,98,0.00,,---,0.00,VWS V14.01,2013-01-09 09:39:00,
2013-01-09 04:40:00,67.3,66.7,30.20,East,85,1.0,2.0,98,0.00,,---,0.00,VWS V14.01,2013-01-09 09:40:00,
2013-01-09 04:44:00,67.3,66.7,30.20,ENE,76,0.0,3.0,98,0.00,,---,0.00,VWS V14.01,2013-01-09 09:44:00,
2013-01-09 04:49:00,67.4,66.8,30.20,ENE,77,0.0,3.0,98,0.00,,---,0.00,VWS V14.01,2013-01-09 09:49:00,
2013-01-09 04:50:00,67.4,66.8,30.20,ENE,77,0.0,3.0,98,0.00,,---,0.00,VWS V14.01,2013-01-09 09:50:00,
2013-01-09 04:54:00,67.5,66.9,30.20,ENE,76,0.0,1.0,98,0.00,,---,0.00,VWS V14.01,2013-01-09 09:54:00,
2013-01-09 04:59:00,67.6,67.0,30.20,ENE,76,0.0,1.0,98,0.00,,---,0.00,VWS V14.01,2013-01-09 09:59:00,
2013-01-09 05:00:00,67.6,67.0,30.20,ENE,77,0.0,1.0,98,0.00,,---,0.00,VWS V14.01,2013-01-09 10:00:00,
2013-01-09 05:04:00,67.6,67.0,30.20,ENE,77,0.0,0.0,98,0.00,,---,0.00,VWS V14.01,2013-01-09 10:04:00,
2013-01-09 05:09:00,67.6,67.0,30.20,ENE,76,0.0,0.0,98,0.00,,---,0.00,VWS V14.01,2013-01-09 10:09:00,
2013-01-09 05:10:00,67.6,67.0,30.20,ENE,76,0.0,0.0,98,0.00,,---,0.00,VWS V14.01,2013-01-09 10:10:00,
2013-01-09 05:14:00,67.5,66.9,30.20,ENE,77,0.0,0.0,98,0.00,,---,0.00,VWS V14.01,2013-01-09 10:14:00,
2013-01-09 05:19:00,67.5,66.9,30.20,ESE,111,0.0,1.0,98,0.00,,---,0.00,VWS V14.01,2013-01-09 10:19:00,
2013-01-09 05:20:00,67.5,66.9,30.20,ESE,112,0.0,1.0,98,0.00,,---,0.00,VWS V14.01,2013-01-09 10:20:00,
2013-01-09 05:24:00,67.5,66.9,30.21,East,95,0.0,0.0,98,0.00,,---,0.00,VWS V14.01,2013-01-09 10:24:00,
2013-01-09 05:29:00,67.5,66.9,30.21,East,84,0.0,0.0,98,0.00,,---,0.00,VWS V14.01,2013-01-09 10:29:00,
2013-01-09 05:30:00,67.5,66.9,30.21,East,83,0.0,0.0,98,0.00,,---,0.00,VWS V14.01,2013-01-09 10:30:00,
2013-01-09 05:34:00,67.5,66.9,30.21,East,83,0.0,0.0,98,0.00,,---,0.00,VWS V14.01,2013-01-09 10:34:00,
2013-01-09 05:39:00,67.5,66.9,30.21,East,84,0.0,0.0,98,0.00,,---,0.00,VWS V14.01,2013-01-09 10:39:00,
2013-01-09 05:40:00,67.5,66.9,30.21,East,84,0.0,0.0,98,0.00,,---,0.00,VWS V14.01,2013-01-09 10:40:00,
2013-01-09 05:44:00,67.5,66.9,30.21,East,84,0.0,0.0,98,0.00,,---,0.00,VWS V14.01,2013-01-09 10:44:00,
2013-01-09 05:49:00,67.5,66.9,30.21,East,83,0.0,0.0,98,0.00,,---,0.00,VWS V14.01,2013-01-09 10:49:00,
2013-01-09 05:50:00,67.5,66.9,30.21,East,83,0.0,0.0,98,0.00,,---,0.00,VWS V14.01,2013-01-09 10:50:00,
2013-01-09 05:54:00,67.5,66.9,30.21,East,84,0.0,0.0,98,0.00,,---,0.00,VWS V14.01,2013-01-09 10:54:00,
2013-01-09 05:59:00,67.6,67.0,30.22,East,84,0.0,0.0,98,0.00,,---,0.00,VWS V14.01,2013-01-09 10:59:00,
2013-01-09 06:00:00,67.6,67.0,30.22,East,83,0.0,0.0,98,0.00,,---,0.00,VWS V14.01,2013-01-09 11:00:00,
2013-01-09 06:03:00,67.7,67.1,30.22,ENE,69,1.0,2.0,98,0.00,,---,0.00,VWS V14.01,2013-01-09 11:03:00,
2013-01-09 06:08:00,67.9,67.3,30.22,ENE,71,1.0,2.0,98,0.00,,---,0.00,VWS V14.01,2013-01-09 11:08:00,
2013-01-09 06:10:00,67.9,67.3,30.22,ENE,67,1.0,2.0,98,0.00,,---,0.00,VWS V14.01,2013-01-09 11:10:00,
2013-01-09 06:13:00,68.0,67.4,30.22,East,80,0.0,1.0,98,0.00,,---,0.00,VWS V14.01,2013-01-09 11:13:00,
2013-01-09 06:18:00,68.1,67.5,30.22,ENE,75,1.0,1.0,98,0.00,,---,0.00,VWS V14.01,2013-01-09 11:18:00,
2013-01-09 06:20:00,68.1,67.5,30.22,ENE,76,0.0,1.0,98,0.00,,---,0.00,VWS V14.01,2013-01-09 11:20:00,
2013-01-09 06:23:00,68.1,67.5,30.22,East,82,1.0,3.0,98,0.00,,---,0.00,VWS V14.01,2013-01-09 11:23:00,
2013-01-09 06:28:00,68.2,67.6,30.22,East,83,1.0,3.0,98,0.00,,---,0.00,VWS V14.01,2013-01-09 11:28:00,
2013-01-09 06:30:00,68.2,67.6,30.22,ENE,60,1.0,3.0,98,0.00,,---,0.00,VWS V14.01,2013-01-09 11:30:00,
2013-01-09 06:33:00,68.3,67.7,30.22,East,91,1.0,3.0,98,0.00,,---,0.00,VWS V14.01,2013-01-09 11:33:00,
2013-01-09 06:38:00,68.3,67.7,30.23,East,99,0.0,3.0,98,0.00,,---,0.00,VWS V14.01,2013-01-09 11:38:00,
2013-01-09 06:40:00,68.3,67.7,30.23,East,89,1.0,3.0,98,0.00,,---,0.00,VWS V14.01,2013-01-09 11:40:00,
2013-01-09 06:43:00,68.3,67.7,30.23,ESE,102,0.0,2.0,98,0.00,,---,0.00,VWS V14.01,2013-01-09 11:43:00,
2013-01-09 06:49:00,68.3,67.7,30.23,East,88,0.0,2.0,98,0.00,,---,0.00,VWS V14.01,2013-01-09 11:49:00,
2013-01-09 06:50:00,68.3,67.7,30.23,East,88,0.0,2.0,98,0.00,,---,0.00,VWS V14.01,2013-01-09 11:50:00,
2013-01-09 06:54:00,68.3,67.7,30.23,ENE,77,2.0,2.0,98,0.00,,---,0.00,VWS V14.01,2013-01-09 11:54:00,
2013-01-09 06:59:00,68.3,67.7,30.23,East,82,0.0,2.0,98,0.00,,---,0.00,VWS V14.01,2013-01-09 11:59:00,
2013-01-09 07:00:00,68.3,67.7,30.23,East,84,1.0,2.0,98,0.00,,---,0.00,VWS V14.01,2013-01-09 12:00:00,
2013-01-09 07:04:00,68.3,67.7,30.23,East,99,0.0,1.0,98,0.00,,---,0.00,VWS V14.01,2013-01-09 12:04:00,
2013-01-09 07:09:00,68.3,67.7,30.23,East,84,1.0,2.0,98,0.00,,---,0.00,VWS V14.01,2013-01-09 12:09:00,
2013-01-09 07:10:00,68.3,67.7,30.23,East,84,0.0,2.0,98,0.00,,---,0.00,VWS V14.01,2013-01-09 12:10:00,
2013-01-09 07:14:00,68.3,67.7,30.23,ENE,60,2.0,3.0,98,0.00,,---,0.00,VWS V14.01,2013-01-09 12:14:00,
2013-01-09 07:19:00,68.2,67.6,30.23,East,101,1.0,3.0,98,0.00,,---,0.00,VWS V14.01,2013-01-09 12:19:00,
2013-01-09 07:20:00,68.2,67.6,30.23,East,100,0.0,3.0,98,0.00,,---,0.00,VWS V14.01,2013-01-09 12:20:00,
2013-01-09 07:24:00,68.2,67.6,30.23,East,84,1.0,2.0,98,0.00,,---,0.00,VWS V14.01,2013-01-09 12:24:00,
2013-01-09 07:29:00,68.1,67.5,30.23,East,95,1.0,3.0,98,0.00,,---,0.00,VWS V14.01,2013-01-09 12:29:00,
2013-01-09 07:30:00,68.1,67.5,30.23,East,95,1.0,3.0,98,0.00,,---,0.00,VWS V14.01,2013-01-09 12:30:00,
2013-01-09 07:34:00,68.1,67.5,30.24,ENE,70,1.0,3.0,98,0.00,,---,0.00,VWS V14.01,2013-01-09 12:34:00,
2013-01-09 07:39:00,68.1,67.5,30.24,East,88,2.0,3.0,98,0.00,,---,0.00,VWS V14.01,2013-01-09 12:39:00,
2013-01-09 07:40:00,68.1,67.5,30.24,East,88,2.0,3.0,98,0.00,,---,0.00,VWS V14.01,2013-01-09 12:40:00,
2013-01-09 07:44:00,68.1,67.5,30.24,ENE,60,2.0,4.0,98,0.00,,---,0.00,VWS V14.01,2013-01-09 12:44:00,
2013-01-09 07:49:00,68.0,67.4,30.24,ESE,106,0.0,4.0,98,0.00,,---,0.00,VWS V14.01,2013-01-09 12:49:00,
2013-01-09 07:50:00,68.0,67.4,30.24,ESE,106,0.0,4.0,98,0.00,,---,0.00,VWS V14.01,2013-01-09 12:50:00,
2013-01-09 07:54:00,68.0,67.4,30.24,East,89,0.0,1.0,98,0.00,,---,0.00,VWS V14.01,2013-01-09 12:54:00,
2013-01-09 07:59:00,68.1,67.5,30.24,ESE,103,1.0,1.0,98,0.00,,---,0.00,VWS V14.01,2013-01-09 12:59:00,
2013-01-09 08:00:00,68.1,67.5,30.24,ESE,103,1.0,1.0,98,0.00,,---,0.00,VWS V14.01,2013-01-09 13:00:00,
2013-01-09 08:04:00,68.1,67.5,30.25,East,84,1.0,3.0,98,0.00,,---,0.00,VWS V14.01,2013-01-09 13:04:00,
2013-01-09 08:09:00,68.1,67.5,30.25,East,90,0.0,0.0,98,0.00,,---,0.00,VWS V14.01,2013-01-09 13:09:00,
2013-01-09 08:10:00,68.1,67.5,30.25,East,90,0.0,3.0,98,0.00,,---,0.00,VWS V14.01,2013-01-09 13:10:00,
2013-01-09 08:14:00,68.2,67.6,30.25,East,90,0.0,0.0,98,0.00,,---,0.00,VWS V14.01,2013-01-09 13:14:00,
2013-01-09 08:19:00,68.2,67.6,30.26,East,91,0.0,0.0,98,0.00,,---,0.00,VWS V14.01,2013-01-09 13:19:00,
2013-01-09 08:20:00,68.2,67.6,30.26,East,91,0.0,1.0,98,0.00,,---,0.00,VWS V14.01,2013-01-09 13:20:00,
2013-01-09 08:24:00,68.3,67.7,30.26,East,91,0.0,1.0,98,0.00,,---,0.00,VWS V14.01,2013-01-09 13:24:00,
2013-01-09 08:29:00,68.3,67.7,30.26,SE,124,0.0,0.0,98,0.00,,---,0.00,VWS V14.01,2013-01-09 13:29:00,
2013-01-09 08:30:00,68.3,67.7,30.26,SE,124,0.0,2.0,98,0.00,,---,0.00,VWS V14.01,2013-01-09 13:30:00,
2013-01-09 08:34:00,68.4,67.8,30.26,East,79,1.0,2.0,98,0.00,,---,0.00,VWS V14.01,2013-01-09 13:34:00,
2013-01-09 08:39:00,68.4,67.8,30.27,East,92,0.0,0.0,98,0.00,,---,0.00,VWS V14.01,2013-01-09 13:39:00,
2013-01-09 08:40:00,68.4,67.8,30.27,East,91,0.0,2.0,98,0.00,,---,0.00,VWS V14.01,2013-01-09 13:40:00,
2013-01-09 08:44:00,68.5,67.9,30.27,ESE,108,0.0,2.0,98,0.00,,---,0.00,VWS V14.01,2013-01-09 13:44:00,
2013-01-09 08:49:00,68.7,68.1,30.27,ESE,111,1.0,1.0,98,0.00,,---,0.00,VWS V14.01,2013-01-09 13:49:00,
2013-01-09 08:50:00,68.7,68.1,30.27,East,84,1.0,2.0,98,0.00,,---,0.00,VWS V14.01,2013-01-09 13:50:00,
2013-01-09 08:54:00,68.8,68.2,30.27,ENE,70,0.0,2.0,98,0.00,,---,0.00,VWS V14.01,2013-01-09 13:54:00,
2013-01-09 08:59:00,68.9,68.3,30.27,ENE,63,2.0,2.0,98,0.00,,---,0.00,VWS V14.01,2013-01-09 13:59:00,
2013-01-09 09:00:00,68.9,68.3,30.27,ENE,60,0.0,2.0,98,0.00,,---,0.00,VWS V14.01,2013-01-09 14:00:00,
2013-01-09 09:04:00,69.0,68.4,30.27,East,88,0.0,2.0,98,0.00,,---,0.00,VWS V14.01,2013-01-09 14:04:00,
2013-01-09 09:09:00,69.2,68.6,30.28,ENE,74,1.0,1.0,98,0.00,,---,0.00,VWS V14.01,2013-01-09 14:09:00,
2013-01-09 09:10:00,69.2,68.6,30.28,East,86,1.0,2.0,98,0.00,,---,0.00,VWS V14.01,2013-01-09 14:10:00,
2013-01-09 09:14:00,69.4,68.8,30.28,ENE,71,0.0,2.0,98,0.00,,---,0.00,VWS V14.01,2013-01-09 14:14:00,
2013-01-09 09:19:00,69.7,69.1,30.28,East,96,1.0,2.0,98,0.00,,---,0.00,VWS V14.01,2013-01-09 14:19:00,
2013-01-09 09:20:00,69.7,69.1,30.28,East,94,0.0,2.0,98,0.00,,---,0.00,VWS V14.01,2013-01-09 14:20:00,
2013-01-09 09:24:00,70.0,69.4,30.28,East,95,1.0,2.0,98,0.00,,---,0.00,VWS V14.01,2013-01-09 14:24:00,
2013-01-09 09:29:00,70.1,69.5,30.28,East,82,1.0,1.0,98,0.00,,---,0.00,VWS V14.01,2013-01-09 14:29:00,
2013-01-09 09:30:00,70.2,69.6,30.28,ESE,122,0.0,2.0,98,0.00,,---,0.00,VWS V14.01,2013-01-09 14:30:00,
2013-01-09 09:34:00,70.4,69.5,30.28,ESE,102,1.0,4.0,97,0.00,,---,0.00,VWS V14.01,2013-01-09 14:34:00,
2013-01-09 09:39:00,70.7,69.8,30.28,East,98,0.0,1.0,97,0.00,,---,0.00,VWS V14.01,2013-01-09 14:39:00,
2013-01-09 09:40:00,70.6,69.7,30.29,South,186,0.0,4.0,97,0.00,,---,0.00,VWS V14.01,2013-01-09 14:40:00,
2013-01-09 09:44:00,70.9,70.0,30.28,East,86,3.0,3.0,97,0.00,,---,0.00,VWS V14.01,2013-01-09 14:44:00,
2013-01-09 09:49:00,71.1,69.9,30.29,ESE,102,0.0,1.0,96,0.00,,---,0.00,VWS V14.01,2013-01-09 14:49:00,
2013-01-09 09:50:00,71.1,69.9,30.28,East,101,1.0,3.0,96,0.00,,---,0.00,VWS V14.01,2013-01-09 14:50:00,
2013-01-09 09:55:00,71.3,69.8,30.29,ESE,112,1.0,4.0,95,0.00,,---,0.00,VWS V14.01,2013-01-09 14:55:00,
2013-01-09 10:00:00,71.7,70.2,30.29,East,84,0.0,1.0,95,0.00,,---,0.00,VWS V14.01,2013-01-09 15:00:00,
2013-01-09 10:05:00,71.9,70.1,30.29,SE,131,0.0,3.0,94,0.00,,---,0.00,VWS V14.01,2013-01-09 15:05:00,
2013-01-09 10:10:00,72.3,70.2,30.29,ESE,102,1.0,2.0,93,0.00,,---,0.00,VWS V14.01,2013-01-09 15:10:00,
2013-01-09 10:15:00,73.0,70.9,30.29,East,85,2.0,4.0,93,0.00,,---,0.00,VWS V14.01,2013-01-09 15:15:00,
2013-01-09 10:20:00,73.9,70.8,30.29,East,89,0.0,0.0,90,0.00,,---,0.00,VWS V14.01,2013-01-09 15:20:00,
2013-01-09 10:25:00,74.7,71.2,30.29,East,96,1.0,3.0,89,0.00,,---,0.00,VWS V14.01,2013-01-09 15:25:00,
2013-01-09 10:30:00,75.1,71.0,30.29,ESE,113,0.0,1.0,87,0.00,,---,0.00,VWS V14.01,2013-01-09 15:30:00,
2013-01-09 10:35:00,75.4,70.6,30.29,East,80,0.0,3.0,85,0.00,,---,0.00,VWS V14.01,2013-01-09 15:35:00,
2013-01-09 10:40:00,75.8,70.3,30.29,East,100,2.0,2.0,83,0.00,,---,0.00,VWS V14.01,2013-01-09 15:40:00,
2013-01-09 10:45:00,76.4,70.9,30.29,SE,129,2.0,4.0,83,0.00,,---,0.00,VWS V14.01,2013-01-09 15:45:00,
2013-01-09 10:50:00,77.2,70.9,30.29,East,80,1.0,2.0,81,0.00,,---,0.00,VWS V14.01,2013-01-09 15:50:00,
2013-01-09 10:55:00,77.3,69.9,30.29,East,91,1.0,5.0,78,0.00,,---,0.00,VWS V14.01,2013-01-09 15:55:00,
2013-01-09 11:00:00,77.4,70.8,30.29,East,97,0.0,1.0,80,0.00,,---,0.00,VWS V14.01,2013-01-09 16:00:00,
2013-01-09 11:05:00,77.6,70.6,30.29,ENE,75,2.0,5.0,79,0.00,,---,0.00,VWS V14.01,2013-01-09 16:05:00,
2013-01-09 11:10:00,77.7,70.7,30.28,East,89,2.0,2.0,79,0.00,,---,0.00,VWS V14.01,2013-01-09 16:10:00,
2013-01-09 11:15:00,77.8,70.4,30.28,ESE,110,0.0,3.0,78,0.00,,---,0.00,VWS V14.01,2013-01-09 16:15:00,
2013-01-09 11:20:00,78.0,70.6,30.28,SE,127,1.0,3.0,78,0.00,,---,0.00,VWS V14.01,2013-01-09 16:20:00,
2013-01-09 11:25:00,77.9,70.5,30.28,East,87,0.0,5.0,78,0.00,,---,0.00,VWS V14.01,2013-01-09 16:25:00,
2013-01-09 11:30:00,78.1,70.7,30.28,SE,134,1.0,2.0,78,0.00,,---,0.00,VWS V14.01,2013-01-09 16:30:00,
2013-01-09 11:35:00,78.5,70.7,30.28,East,88,2.0,5.0,77,0.00,,---,0.00,VWS V14.01,2013-01-09 16:35:00,
2013-01-09 11:40:00,79.1,70.9,30.28,SE,139,4.0,7.0,76,0.00,,---,0.00,VWS V14.01,2013-01-09 16:40:00,
2013-01-09 11:45:00,79.1,70.9,30.27,ENE,74,4.0,7.0,76,0.00,,---,0.00,VWS V14.01,2013-01-09 16:45:00,
2013-01-09 11:50:00,78.9,70.3,30.27,ENE,75,1.0,6.0,75,0.00,,---,0.00,VWS V14.01,2013-01-09 16:50:00,
2013-01-09 11:55:00,78.8,70.6,30.27,ENE,63,5.0,6.0,76,0.00,,---,0.00,VWS V14.01,2013-01-09 16:55:00,
2013-01-09 12:00:00,79.1,70.9,30.27,East,96,1.0,4.0,76,0.00,,---,0.00,VWS V14.01,2013-01-09 17:00:00,
2013-01-09 12:05:00,79.4,70.8,30.26,East,93,0.0,5.0,75,0.00,,---,0.00,VWS V14.01,2013-01-09 17:05:00,
2013-01-09 12:10:00,79.6,71.0,30.26,ESE,117,0.0,3.0,75,0.00,,---,0.00,VWS V14.01,2013-01-09 17:10:00,
2013-01-09 12:15:00,79.6,71.0,30.26,SSE,155,1.0,4.0,75,0.00,,---,0.00,VWS V14.01,2013-01-09 17:15:00,
2013-01-09 12:20:00,79.6,71.0,30.26,ENE,70,2.0,2.0,75,0.00,,---,0.00,VWS V14.01,2013-01-09 17:20:00,
2013-01-09 12:25:00,79.6,71.4,30.26,ENE,67,2.0,3.0,76,0.00,,---,0.00,VWS V14.01,2013-01-09 17:25:00,
2013-01-09 12:30:00,79.7,71.1,30.26,SW,226,2.0,4.0,75,0.00,,---,0.00,VWS V14.01,2013-01-09 17:30:00,
2013-01-09 12:35:00,79.9,70.9,30.25,ESE,107,5.0,6.0,74,0.00,,---,0.00,VWS V14.01,2013-01-09 17:35:00,
2013-01-09 12:40:00,79.8,70.8,30.25,East,86,1.0,3.0,74,0.00,,---,0.00,VWS V14.01,2013-01-09 17:40:00,
2013-01-09 12:45:00,80.6,71.9,30.25,South,179,1.0,4.0,75,0.00,,---,0.00,VWS V14.01,2013-01-09 17:45:00,
2013-01-09 12:50:00,81.1,71.6,30.25,East,95,2.0,4.0,73,0.00,,---,0.00,VWS V14.01,2013-01-09 17:50:00,
2013-01-09 12:55:00,80.9,71.4,30.24,NE,50,3.0,5.0,73,0.00,,---,0.00,VWS V14.01,2013-01-09 17:55:00,
2013-01-09 13:00:00,80.5,71.1,30.24,NE,43,2.0,2.0,73,0.00,,---,0.00,VWS V14.01,2013-01-09 18:00:00,
2013-01-09 13:05:00,80.7,71.7,30.24,ENE,60,3.0,6.0,74,0.00,,---,0.00,VWS V14.01,2013-01-09 18:05:00,
2013-01-09 13:10:00,81.2,71.3,30.24,East,80,3.0,5.0,72,0.00,,---,0.00,VWS V14.01,2013-01-09 18:10:00,
2013-01-09 13:15:00,81.6,71.7,30.23,East,91,2.0,5.0,72,0.00,,---,0.00,VWS V14.01,2013-01-09 18:15:00,
2013-01-09 13:20:00,82.0,70.4,30.23,East,101,2.0,4.0,68,0.00,,---,0.00,VWS V14.01,2013-01-09 18:20:00,
2013-01-09 13:25:00,81.7,69.7,30.23,East,82,2.0,7.0,67,0.00,,---,0.00,VWS V14.01,2013-01-09 18:25:00,
2013-01-09 13:30:00,81.0,69.4,30.23,ENE,75,5.0,6.0,68,0.00,,---,0.00,VWS V14.01,2013-01-09 18:30:00,
2013-01-09 13:35:00,80.5,69.0,30.23,NE,54,3.0,6.0,68,0.00,,---,0.00,VWS V14.01,2013-01-09 18:35:00,
2013-01-09 13:40:00,80.3,69.2,30.23,East,96,2.0,4.0,69,0.00,,---,0.00,VWS V14.01,2013-01-09 18:40:00,
2013-01-09 13:41:00,80.3,69.2,30.23,East,98,2.0,6.0,69,0.00,,---,0.00,VWS V14.01,2013-01-09 18:41:00,
2013-01-09 13:42:00,80.3,68.8,30.23,East,94,1.0,6.0,68,0.00,,---,0.00,VWS V14.01,2013-01-09 18:42:00,
2013-01-09 13:44:00,80.3,69.6,30.23,NNE,27,0.0,6.0,70,0.00,,---,0.00,VWS V14.01,2013-01-09 18:44:00,
2013-01-09 13:48:00,80.4,69.7,30.23,East,99,2.0,6.0,70,0.00,,---,0.00,VWS V14.01,2013-01-09 18:48:00,
2013-01-09 13:49:00,80.4,69.7,30.23,East,92,2.0,6.0,70,0.00,,---,0.00,VWS V14.01,2013-01-09 18:49:00,
2013-01-09 13:50:00,80.4,69.7,30.23,ESE,113,2.0,6.0,70,0.00,,---,0.00,VWS V14.01,2013-01-09 18:50:00,
2013-01-09 13:54:00,80.2,69.1,30.23,East,96,2.0,5.0,69,0.00,,---,0.00,VWS V14.01,2013-01-09 18:54:00,
2013-01-09 13:59:00,80.1,68.6,30.23,South,181,1.0,2.0,68,0.00,,---,0.00,VWS V14.01,2013-01-09 18:59:00,
2013-01-09 14:00:00,80.1,68.6,30.23,SE,141,2.0,5.0,68,0.00,,---,0.00,VWS V14.01,2013-01-09 19:00:00,
2013-01-09 14:04:00,80.1,68.6,30.23,East,91,1.0,2.0,68,0.00,,---,0.00,VWS V14.01,2013-01-09 19:04:00,
2013-01-09 14:09:00,80.1,68.6,30.22,East,86,2.0,2.0,68,0.00,,---,0.00,VWS V14.01,2013-01-09 19:09:00,
2013-01-09 14:10:00,80.1,68.6,30.23,East,80,2.0,4.0,68,0.00,,---,0.00,VWS V14.01,2013-01-09 19:10:00,
2013-01-09 14:14:00,79.9,69.2,30.23,South,174,2.0,4.0,70,0.00,,---,0.00,VWS V14.01,2013-01-09 19:14:00,
2013-01-09 14:19:00,79.8,68.7,30.22,East,91,2.0,2.0,69,0.00,,---,0.00,VWS V14.01,2013-01-09 19:19:00,
2013-01-09 14:20:00,79.8,68.7,30.23,East,88,2.0,4.0,69,0.00,,---,0.00,VWS V14.01,2013-01-09 19:20:00,
2013-01-09 14:24:00,80.0,69.8,30.22,ENE,75,1.0,2.0,71,0.00,,---,0.00,VWS V14.01,2013-01-09 19:24:00,
2013-01-09 14:29:00,80.2,69.1,30.22,ENE,68,2.0,3.0,69,0.00,,---,0.00,VWS V14.01,2013-01-09 19:29:00,
2013-01-09 14:30:00,80.2,69.1,30.22,ENE,75,1.0,5.0,69,0.00,,---,0.00,VWS V14.01,2013-01-09 19:30:00,
2013-01-09 14:34:00,80.2,68.7,30.22,East,94,2.0,5.0,68,0.00,,---,0.00,VWS V14.01,2013-01-09 19:34:00,
2013-01-09 14:39:00,80.1,69.0,30.22,ENE,65,3.0,3.0,69,0.00,,---,0.00,VWS V14.01,2013-01-09 19:39:00,
2013-01-09 14:40:00,80.1,69.0,30.22,ESE,120,2.0,5.0,69,0.00,,---,0.00,VWS V14.01,2013-01-09 19:40:00,
2013-01-09 14:44:00,80.2,69.5,30.22,SSE,150,3.0,4.0,70,0.00,,---,0.00,VWS V14.01,2013-01-09 19:44:00,
2013-01-09 14:49:00,80.2,68.7,30.22,ESE,111,3.0,4.0,68,0.00,,---,0.00,VWS V14.01,2013-01-09 19:49:00,
2013-01-09 14:50:00,80.2,68.7,30.22,East,91,3.0,5.0,68,0.00,,---,0.00,VWS V14.01,2013-01-09 19:50:00,
2013-01-09 14:54:00,80.3,68.3,30.22,ENE,73,2.0,4.0,67,0.00,,---,0.00,VWS V14.01,2013-01-09 19:54:00,
2013-01-09 14:59:00,80.5,67.7,30.22,ESE,116,4.0,6.0,65,0.00,,---,0.00,VWS V14.01,2013-01-09 19:59:00,
2013-01-09 15:00:00,80.5,68.1,30.22,ESE,102,1.0,4.0,66,0.00,,---,0.00,VWS V14.01,2013-01-09 20:00:00,
2013-01-09 15:04:00,80.7,68.3,30.22,East,89,2.0,6.0,66,0.00,,---,0.00,VWS V14.01,2013-01-09 20:04:00,
2013-01-09 15:09:00,80.8,68.4,30.22,East,82,1.0,3.0,66,0.00,,---,0.00,VWS V14.01,2013-01-09 20:09:00,
2013-01-09 15:10:00,80.8,68.4,30.22,East,88,3.0,6.0,66,0.00,,---,0.00,VWS V14.01,2013-01-09 20:10:00,
2013-01-09 15:14:00,80.7,68.7,30.22,ESE,102,4.0,4.0,67,0.00,,---,0.00,VWS V14.01,2013-01-09 20:14:00,
2013-01-09 15:19:00,80.6,68.6,30.22,ENE,71,1.0,3.0,67,0.00,,---,0.00,VWS V14.01,2013-01-09 20:19:00,
2013-01-09 15:20:00,80.6,68.6,30.22,ENE,68,1.0,5.0,67,0.00,,---,0.00,VWS V14.01,2013-01-09 20:20:00,
2013-01-09 15:24:00,80.4,68.9,30.22,ENE,75,5.0,6.0,68,0.00,,---,0.00,VWS V14.01,2013-01-09 20:24:00,
2013-01-09 15:30:00,80.2,68.7,30.22,ENE,78,2.0,5.0,68,0.00,,---,0.00,VWS V14.01,2013-01-09 20:30:00,
2013-01-09 15:35:00,80.1,68.6,30.22,ESE,117,2.0,7.0,68,0.00,,---,0.00,VWS V14.01,2013-01-09 20:35:00,
2013-01-09 15:40:00,80.1,69.0,30.22,East,79,1.0,2.0,69,0.00,,---,0.00,VWS V14.01,2013-01-09 20:40:00,
2013-01-09 15:45:00,80.4,69.3,30.22,ESE,105,1.0,5.0,69,0.00,,---,0.00,VWS V14.01,2013-01-09 20:45:00,
2013-01-09 15:50:00,80.7,68.7,30.22,East,87,5.0,8.0,67,0.00,,---,0.00,VWS V14.01,2013-01-09 20:50:00,
2013-01-09 15:55:00,80.8,69.3,30.22,ESE,108,4.0,8.0,68,0.00,,---,0.00,VWS V14.01,2013-01-09 20:55:00,
2013-01-09 16:00:00,80.7,69.2,30.22,East,79,3.0,3.0,68,0.00,,---,0.00,VWS V14.01,2013-01-09 21:00:00,
2013-01-09 16:05:00,80.6,69.5,30.22,East,94,2.0,5.0,69,0.00,,---,0.00,VWS V14.01,2013-01-09 21:05:00,
2013-01-09 16:10:00,80.5,69.4,30.22,NE,53,4.0,4.0,69,0.00,,---,0.00,VWS V14.01,2013-01-09 21:10:00,
2013-01-09 16:15:00,80.5,69.4,30.23,SE,135,3.0,5.0,69,0.00,,---,0.00,VWS V14.01,2013-01-09 21:15:00,
2013-01-09 16:20:00,80.2,69.5,30.23,East,88,1.0,5.0,70,0.00,,---,0.00,VWS V14.01,2013-01-09 21:20:00,
2013-01-09 16:25:00,79.9,69.7,30.23,ENE,74,2.0,6.0,71,0.00,,---,0.00,VWS V14.01,2013-01-09 21:25:00,
2013-01-09 16:30:00,79.6,69.4,30.23,East,82,1.0,4.0,71,0.00,,---,0.00,VWS V14.01,2013-01-09 21:30:00,
2013-01-09 16:35:00,79.2,69.4,30.23,ENE,68,1.0,5.0,72,0.00,,---,0.00,VWS V14.01,2013-01-09 21:35:00,
2013-01-09 16:40:00,79.1,69.7,30.23,ENE,76,2.0,3.0,73,0.00,,---,0.00,VWS V14.01,2013-01-09 21:40:00,
2013-01-09 16:45:00,78.9,69.5,30.23,East,84,1.0,3.0,73,0.00,,---,0.00,VWS V14.01,2013-01-09 21:45:00,
2013-01-09 16:50:00,78.8,69.8,30.22,ESE,104,1.0,2.0,74,0.00,,---,0.00,VWS V14.01,2013-01-09 21:50:00,
2013-01-09 16:55:00,78.8,69.8,30.23,East,92,1.0,4.0,74,0.00,,---,0.00,VWS V14.01,2013-01-09 21:55:00,
2013-01-09 17:00:00,78.7,69.7,30.23,East,86,2.0,2.0,74,0.00,,---,0.00,VWS V14.01,2013-01-09 22:00:00,
2013-01-09 17:05:00,78.7,69.7,30.23,ENE,75,1.0,2.0,74,0.00,,---,0.00,VWS V14.01,2013-01-09 22:05:00,
2013-01-09 17:10:00,78.5,69.9,30.23,East,80,2.0,3.0,75,0.00,,---,0.00,VWS V14.01,2013-01-09 22:10:00,
2013-01-09 17:15:00,78.4,69.8,30.23,East,88,2.0,4.0,75,0.00,,---,0.00,VWS V14.01,2013-01-09 22:15:00,
2013-01-09 17:20:00,78.1,69.9,30.23,ESE,105,1.0,2.0,76,0.00,,---,0.00,VWS V14.01,2013-01-09 22:20:00,
2013-01-09 17:25:00,77.9,69.7,30.23,ENE,68,0.0,3.0,76,0.00,,---,0.00,VWS V14.01,2013-01-09 22:25:00,
2013-01-09 17:30:00,77.7,69.5,30.23,ENE,75,2.0,3.0,76,0.00,,---,0.00,VWS V14.01,2013-01-09 22:30:00,
2013-01-09 17:35:00,77.5,69.7,30.23,East,84,1.0,5.0,77,0.00,,---,0.00,VWS V14.01,2013-01-09 22:35:00,
2013-01-09 17:40:00,77.2,69.4,30.23,ENE,67,2.0,2.0,77,0.00,,---,0.00,VWS V14.01,2013-01-09 22:40:00,
2013-01-09 17:45:00,77.0,69.6,30.24,East,94,1.0,3.0,78,0.00,,---,0.00,VWS V14.01,2013-01-09 22:45:00,
2013-01-09 17:50:00,76.7,69.7,30.24,East,80,1.0,1.0,79,0.00,,---,0.00,VWS V14.01,2013-01-09 22:50:00,
2013-01-09 17:55:00,76.4,69.8,30.24,ENE,68,1.0,3.0,80,0.00,,---,0.00,VWS V14.01,2013-01-09 22:55:00,
2013-01-09 18:00:00,76.2,69.6,30.24,East,80,1.0,3.0,80,0.00,,---,0.00,VWS V14.01,2013-01-09 23:00:00,
2013-01-09 18:05:00,76.0,69.4,30.24,ESE,106,0.0,3.0,80,0.00,,---,0.00,VWS V14.01,2013-01-09 23:05:00,
2013-01-09 18:10:00,75.7,69.5,30.24,East,86,1.0,1.0,81,0.00,,---,0.00,VWS V14.01,2013-01-09 23:10:00,
2013-01-09 18:15:00,75.6,69.0,30.24,East,81,1.0,5.0,80,0.00,,---,0.00,VWS V14.01,2013-01-09 23:15:00,
2013-01-09 18:20:00,75.5,68.9,30.24,East,86,0.0,1.0,80,0.00,,---,0.00,VWS V14.01,2013-01-09 23:20:00,
2013-01-09 18:25:00,75.3,68.7,30.25,ENE,70,1.0,3.0,80,0.00,,---,0.00,VWS V14.01,2013-01-09 23:25:00,
2013-01-09 18:30:00,75.3,68.7,30.25,East,83,1.0,1.0,80,0.00,,---,0.00,VWS V14.01,2013-01-09 23:30:00,
2013-01-09 18:35:00,75.3,68.7,30.25,ENE,78,1.0,3.0,80,0.00,,---,0.00,VWS V14.01,2013-01-09 23:35:00,
2013-01-09 18:40:00,75.2,68.6,30.25,East,79,2.0,3.0,80,0.00,,---,0.00,VWS V14.01,2013-01-09 23:40:00,
2013-01-09 18:45:00,75.0,68.4,30.25,ENE,75,3.0,5.0,80,0.00,,---,0.00,VWS V14.01,2013-01-09 23:45:00,
2013-01-09 18:50:00,75.0,68.8,30.25,East,90,1.0,2.0,81,0.00,,---,0.00,VWS V14.01,2013-01-09 23:50:00,
2013-01-09 18:55:00,74.9,68.7,30.25,East,97,2.0,6.0,81,0.00,,---,0.00,VWS V14.01,2013-01-09 23:55:00,
2013-01-09 19:00:00,74.8,68.9,30.25,ENE,58,2.0,4.0,82,0.00,,---,0.00,VWS V14.01,2013-01-10 00:00:00,
2013-01-09 19:05:00,74.6,68.8,30.25,East,99,2.0,5.0,82,0.00,,---,0.00,VWS V14.01,2013-01-10 00:05:00,
2013-01-09 19:10:00,74.4,68.9,30.25,ESE,109,1.0,2.0,83,0.00,,---,0.00,VWS V14.01,2013-01-10 00:10:00,
2013-01-09 19:15:00,74.2,69.1,30.25,ENE,75,2.0,5.0,84,0.00,,---,0.00,VWS V14.01,2013-01-10 00:15:00,
2013-01-09 19:20:00,74.0,68.9,30.26,East,80,2.0,3.0,84,0.00,,---,0.00,VWS V14.01,2013-01-10 00:20:00,
2013-01-09 19:25:00,73.8,69.0,30.26,East,91,1.0,5.0,85,0.00,,---,0.00,VWS V14.01,2013-01-10 00:25:00,
2013-01-09 19:30:00,73.7,68.9,30.26,East,96,1.0,2.0,85,0.00,,---,0.00,VWS V14.01,2013-01-10 00:30:00,
2013-01-09 19:35:00,73.5,69.1,30.26,East,95,3.0,4.0,86,0.00,,---,0.00,VWS V14.01,2013-01-10 00:35:00,
2013-01-09 19:40:00,73.4,69.0,30.26,ENE,76,1.0,2.0,86,0.00,,---,0.00,VWS V14.01,2013-01-10 00:40:00,
2013-01-09 19:45:00,73.2,69.1,30.26,East,84,4.0,5.0,87,0.00,,---,0.00,VWS V14.01,2013-01-10 00:45:00,
2013-01-09 19:50:00,73.1,69.0,30.26,ENE,77,2.0,3.0,87,0.00,,---,0.00,VWS V14.01,2013-01-10 00:50:00,
2013-01-09 19:55:00,73.0,68.9,30.26,ENE,73,3.0,5.0,87,0.00,,---,0.00,VWS V14.01,2013-01-10 00:55:00,
2013-01-09 20:00:00,73.0,68.9,30.27,East,84,2.0,6.0,87,0.00,,---,0.00,VWS V14.01,2013-01-10 01:00:00,
2013-01-09 20:05:00,72.9,69.1,30.27,East,99,2.0,6.0,88,0.00,,---,0.00,VWS V14.01,2013-01-10 01:05:00,
2013-01-09 20:10:00,72.8,69.0,30.27,ENE,69,6.0,6.0,88,0.00,,---,0.00,VWS V14.01,2013-01-10 01:10:00,
2013-01-09 20:15:00,72.7,68.9,30.28,ENE,68,1.0,6.0,88,0.00,,---,0.00,VWS V14.01,2013-01-10 01:15:00,
2013-01-09 20:20:00,72.6,68.8,30.28,East,88,2.0,4.0,88,0.00,,---,0.00,VWS V14.01,2013-01-10 01:20:00,
2013-01-09 20:25:00,72.4,68.7,30.28,East,97,1.0,5.0,88,0.00,,---,0.00,VWS V14.01,2013-01-10 01:25:00,
2013-01-09 20:30:00,72.3,68.9,30.28,ENE,73,3.0,4.0,89,0.00,,---,0.00,VWS V14.01,2013-01-10 01:30:00,
2013-01-09 20:35:00,72.1,68.7,30.28,East,93,1.0,5.0,89,0.00,,---,0.00,VWS V14.01,2013-01-10 01:35:00,
2013-01-09 20:40:00,72.0,68.6,30.28,East,84,1.0,3.0,89,0.00,,---,0.00,VWS V14.01,2013-01-10 01:40:00,
2013-01-09 20:45:00,71.8,68.4,30.28,East,84,1.0,3.0,89,0.00,,---,0.00,VWS V14.01,2013-01-10 01:45:00,
2013-01-09 20:50:00,71.7,68.3,30.28,ENE,67,1.0,2.0,89,0.00,,---,0.00,VWS V14.01,2013-01-10 01:50:00,
2013-01-09 20:55:00,71.6,68.5,30.28,East,95,2.0,4.0,90,0.00,,---,0.00,VWS V14.01,2013-01-10 01:55:00,
2013-01-09 21:00:00,71.6,68.5,30.28,East,88,2.0,4.0,90,0.00,,---,0.00,VWS V14.01,2013-01-10 02:00:00,
2013-01-09 21:05:00,71.5,68.4,30.28,East,84,0.0,4.0,90,0.00,,---,0.00,VWS V14.01,2013-01-10 02:05:00,
2013-01-09 21:10:00,71.4,68.3,30.28,East,82,3.0,3.0,90,0.00,,---,0.00,VWS V14.01,2013-01-10 02:10:00,
2013-01-09 21:15:00,71.4,68.3,30.28,ESE,107,0.0,6.0,90,0.00,,---,0.00,VWS V14.01,2013-01-10 02:15:00,
2013-01-09 21:20:00,71.3,68.2,30.29,East,100,0.0,2.0,90,0.00,,---,0.00,VWS V14.01,2013-01-10 02:20:00,
2013-01-09 21:25:00,71.3,68.2,30.28,ESE,115,1.0,4.0,90,0.00,,---,0.00,VWS V14.01,2013-01-10 02:25:00,
2013-01-09 21:30:00,71.2,68.1,30.29,ENE,63,1.0,3.0,90,0.00,,---,0.00,VWS V14.01,2013-01-10 02:30:00,
2013-01-09 21:35:00,71.2,68.1,30.29,East,84,2.0,3.0,90,0.00,,---,0.00,VWS V14.01,2013-01-10 02:35:00,
2013-01-09 21:40:00,71.2,68.1,30.29,ESE,118,0.0,3.0,90,0.00,,---,0.00,VWS V14.01,2013-01-10 02:40:00,
2013-01-09 21:45:00,71.2,68.1,30.29,East,91,0.0,4.0,90,0.00,,---,0.00,VWS V14.01,2013-01-10 02:45:00,
2013-01-09 21:50:00,71.1,68.0,30.29,ENE,76,2.0,2.0,90,0.00,,---,0.00,VWS V14.01,2013-01-10 02:50:00,
2013-01-09 21:55:00,71.0,68.2,30.30,East,80,0.0,3.0,91,0.00,,---,0.00,VWS V14.01,2013-01-10 02:55:00,
2013-01-09 22:00:00,70.9,68.2,30.30,East,96,0.0,1.0,91,0.00,,---,0.00,VWS V14.01,2013-01-10 03:00:00,
2013-01-09 22:05:00,70.7,67.9,30.30,East,84,1.0,2.0,91,0.00,,---,0.00,VWS V14.01,2013-01-10 03:05:00,
2013-01-09 22:10:00,70.6,67.8,30.30,ESE,116,0.0,1.0,91,0.00,,---,0.00,VWS V14.01,2013-01-10 03:10:00,
2013-01-09 22:15:00,70.4,68.0,30.30,ESE,108,0.0,2.0,92,0.00,,---,0.00,VWS V14.01,2013-01-10 03:15:00,
2013-01-09 22:20:00,70.3,67.9,30.30,East,86,0.0,1.0,92,0.00,,---,0.00,VWS V14.01,2013-01-10 03:20:00,
2013-01-09 22:25:00,70.2,67.8,30.30,East,85,0.0,1.0,92,0.00,,---,0.00,VWS V14.01,2013-01-10 03:25:00,
2013-01-09 22:30:00,70.2,67.8,30.30,East,87,0.0,1.0,92,0.00,,---,0.00,VWS V14.01,2013-01-10 03:30:00,
2013-01-09 22:35:00,70.1,67.7,30.30,East,98,0.0,1.0,92,0.00,,---,0.00,VWS V14.01,2013-01-10 03:35:00,
2013-01-09 22:40:00,70.0,67.6,30.30,SE,126,1.0,1.0,92,0.00,,---,0.00,VWS V14.01,2013-01-10 03:40:00,
2013-01-09 22:45:00,69.9,67.8,30.30,ESE,103,0.0,1.0,93,0.00,,---,0.00,VWS V14.01,2013-01-10 03:45:00,
2013-01-09 22:50:00,69.8,67.7,30.30,East,87,0.0,0.0,93,0.00,,---,0.00,VWS V14.01,2013-01-10 03:50:00,
2013-01-09 22:55:00,69.7,67.6,30.30,East,85,3.0,3.0,93,0.00,,---,0.00,VWS V14.01,2013-01-10 03:55:00,
2013-01-09 23:00:00,69.6,67.5,30.30,East,95,1.0,2.0,93,0.00,,---,0.00,VWS V14.01,2013-01-10 04:00:00,
2013-01-09 23:05:00,69.6,67.5,30.30,SE,126,1.0,2.0,93,0.00,,---,0.00,VWS V14.01,2013-01-10 04:05:00,
2013-01-09 23:10:00,69.6,67.8,30.30,SE,131,0.0,1.0,94,0.00,,---,0.00,VWS V14.01,2013-01-10 04:10:00,
2013-01-09 23:15:00,69.5,67.7,30.30,ESE,121,0.0,1.0,94,0.00,,---,0.00,VWS V14.01,2013-01-10 04:15:00,
2013-01-09 23:20:00,69.6,67.8,30.30,East,85,1.0,1.0,94,0.00,,---,0.00,VWS V14.01,2013-01-10 04:20:00,
2013-01-09 23:25:00,69.6,67.8,30.31,East,91,1.0,1.0,94,0.00,,---,0.00,VWS V14.01,2013-01-10 04:25:00,
2013-01-09 23:30:00,69.5,67.7,30.30,East,83,1.0,2.0,94,0.00,,---,0.00,VWS V14.01,2013-01-10 04:30:00,
2013-01-09 23:35:00,69.5,68.0,30.31,East,86,0.0,2.0,95,0.00,,---,0.00,VWS V14.01,2013-01-10 04:35:00,
2013-01-09 23:40:00,69.5,68.0,30.31,East,84,0.0,0.0,95,0.00,,---,0.00,VWS V14.01,2013-01-10 04:40:00,
2013-01-09 23:45:00,69.5,68.0,30.31,ENE,58,0.0,3.0,95,0.00,,---,0.00,VWS V14.01,2013-01-10 04:45:00,
2013-01-09 23:50:00,69.4,67.9,30.31,East,83,2.0,2.0,95,0.00,,---,0.00,VWS V14.01,2013-01-10 04:50:00,
2013-01-09 23:55:00,69.4,67.9,30.31,ENE,75,1.0,2.0,95,0.00,,---,0.00,VWS V14.01,2013-01-10 04:55:00,